Kleine Brogel, Belgium

4:16 PM CEST on August 16, 2017 (GMT +0200)
Kleine-Brogel Air Base

Weather History for EBBL - May, 2013

Change the Weather History Date:

Thursday, May 9, 2013

  Actual Average Record
Temperature  
Mean Temperature 58 °F -  
Max Temperature 64 °F 63 °F 82 °F (2008)
Min Temperature 51 °F 50 °F 33 °F (2017)
Degree Days  
Heating Degree Days 8    
Growing Degree Days 8 (Base 50)    
Moisture  
Dew Point 48 °F    
Average Humidity 74    
Maximum Humidity 100    
Minimum Humidity 38    
Precipitation  
Precipitation 0.00 in - - ()
Sea Level Pressure  
Sea Level Pressure 29.91 in    
Wind  
Wind Speed 8 mph ()    
Max Wind Speed 16 mph    
Max Gust Speed -    
Visibility 6.9 miles    
Events      
Averages and records for this station are not official NWS values.
T = Trace of Precipitation, MM = Missing Value Source: Averaged Metar Reports

Daily Weather History Graph

Daily Weather History Graph

Search for Another Location

Airport or City:

Trip Planner

Search our weather history database for the weather conditions in past years. The results will help you decide how hot, cold, wet, or windy it might be!

Date:

Astronomy

May. 09, 2013 Rise Set
Actual Time 5:56 AM CEST 9:13 PM CEST
Civil Twilight 5:17 AM CEST 9:53 PM CEST
Nautical Twilight 4:24 AM CEST 10:45 PM CEST
Astronomical Twilight 3:15 AM CEST 11:56 PM CEST
Moon 5:36 AM CEST (5/9) 8:51 PM CEST (5/9)
Length of Visible Light 16h 35m
Length of Day
15h 16m
Waning Crescent, 0% of the Moon is Illuminated
May 9
Waning Crescent
May 10
New
May 18
First Quarter
May 25
Full
May 31
Last Quarter

Hourly Weather History & Observations

Time (CEST) Temp. Dew Point Humidity Pressure Visibility Wind Dir Wind Speed Gust Speed Precip Events Conditions
12:25 AM 55.4 °F 55.4 °F 100% 29.86 in 6.2 mi SSW 4.6 mph - N/A   Mostly Cloudy
12:55 AM 55.4 °F 55.4 °F 100% 29.86 in 6.2 mi SSW 4.6 mph - N/A   Scattered Clouds
1:06 AM 55.4 °F 55.4 °F 100% 29.89 in 5.6 mi SSW 6.9 mph - N/A   Mostly Cloudy
1:25 AM 55.4 °F 55.4 °F 100% 29.89 in 5.0 mi SSW 6.9 mph - N/A   Mostly Cloudy
1:55 AM 55.4 °F 55.4 °F 100% 29.89 in 5.0 mi SW 8.1 mph - N/A   Mostly Cloudy
2:00 AM 55 °F 55 °F 100% 29.89 in 4 mi SW 8.9 mph - -   Partly Cloudy
2:25 AM 55.4 °F 55.4 °F 100% 29.89 in 2.5 mi SW 8.1 mph - N/A   Mostly Cloudy
2:31 AM 55.4 °F 55.4 °F 100% 29.89 in 2.5 mi SW 8.1 mph - N/A   Mostly Cloudy
2:36 AM 55.4 °F 55.4 °F 100% 29.89 in 2.5 mi SW 6.9 mph - N/A   Mostly Cloudy
2:55 AM 55.4 °F 55.4 °F 100% 29.86 in 2.5 mi SSW 5.8 mph - N/A   Mostly Cloudy
3:16 AM 55.4 °F 55.4 °F 100% 29.89 in 2.5 mi SSW 4.6 mph - N/A   Mostly Cloudy
3:25 AM 53.6 °F 53.6 °F 100% 29.89 in 2.5 mi SW 4.6 mph - N/A   Mostly Cloudy
3:27 AM 53.6 °F 53.6 °F 100% 29.89 in 4.3 mi SSW 5.8 mph - N/A   Mostly Cloudy
3:56 AM 53.6 °F 53.6 °F 100% 29.89 in 6.2 mi SW 5.8 mph - N/A   Mostly Cloudy
4:25 AM 53.6 °F 53.6 °F 100% 29.89 in 6.2 mi SSW 4.6 mph - N/A   Mostly Cloudy
4:55 AM 53.6 °F 53.6 °F 100% 29.89 in 6.2 mi SW 6.9 mph - N/A   Mostly Cloudy
5:00 AM 54 °F 54 °F 98% 29.89 in 6 mi SW 6.7 mph - -   Mostly Cloudy
5:25 AM 53.6 °F 53.6 °F 100% 29.89 in 6.2 mi SW 6.9 mph - N/A   Mostly Cloudy
5:55 AM 53.6 °F 53.6 °F 100% 29.89 in 6.2 mi WSW 9.2 mph - N/A   Mostly Cloudy
6:25 AM 53.6 °F 51.8 °F 94% 29.92 in 6.2 mi WSW 9.2 mph - N/A   Mostly Cloudy
6:55 AM 53.6 °F 51.8 °F 94% 29.92 in 6.2 mi WSW 6.9 mph - N/A   Mostly Cloudy
7:25 AM 51.8 °F 50.0 °F 94% 29.92 in 6.2 mi WSW 9.2 mph - N/A   Mostly Cloudy
7:55 AM 53.6 °F 50.0 °F 88% 29.95 in 6.2 mi SW 9.2 mph - N/A   Scattered Clouds
8:00 AM 53 °F 50 °F 86% 29.95 in 16 mi WSW 8.9 mph - -   Partly Cloudy
8:25 AM 53.6 °F 50.0 °F 88% 29.95 in 6.2 mi WSW 12.7 mph - N/A   Mostly Cloudy
8:55 AM 53.6 °F 48.2 °F 82% 29.95 in 6.2 mi WSW 13.8 mph - N/A   Mostly Cloudy
9:25 AM 55.4 °F 50.0 °F 82% 29.95 in 6.2 mi WSW 12.7 mph - N/A   Mostly Cloudy
9:36 AM 55.4 °F 48.2 °F 77% 29.95 in 6.2 mi WSW 10.4 mph - N/A   Mostly Cloudy
9:55 AM 55.4 °F 48.2 °F 77% 29.95 in 6.2 mi WSW 11.5 mph - N/A   Mostly Cloudy
10:25 AM 57.2 °F 46.4 °F 67% 29.95 in 6.2 mi SW 12.7 mph - N/A   Scattered Clouds
10:54 AM 59.0 °F 46.4 °F 63% 29.95 in 6.2 mi SW 10.4 mph - N/A   Partly Cloudy
11:00 AM 58 °F 47 °F 58% 29.96 in 19 mi SW 11.2 mph - -   Partly Cloudy
11:25 AM 57.2 °F 42.8 °F 59% 29.95 in 6.2 mi SW 16.1 mph - N/A   Partly Cloudy
11:55 AM 59.0 °F 41.0 °F 51% 29.95 in 6.2 mi SW 15.0 mph - N/A   Scattered Clouds
12:25 PM 60.8 °F 44.6 °F 55% 29.95 in 6.2 mi SW 13.8 mph - N/A   Partly Cloudy
1:25 PM 59.0 °F 44.6 °F 59% 29.95 in 6.2 mi SW 15.0 mph - N/A   Mostly Cloudy
1:55 PM 60.8 °F 41.0 °F 48% 29.95 in 6.2 mi SW 16.1 mph - N/A   Mostly Cloudy
2:00 PM 61 °F 42 °F 38% 29.96 in 19 mi SW 15.7 mph - -   Mostly Cloudy
2:25 PM 60.8 °F 41.0 °F 48% 29.95 in 6.2 mi SW 15.0 mph - N/A   Mostly Cloudy
2:55 PM 60.8 °F 42.8 °F 52% 29.92 in 6.2 mi SW 15.0 mph - N/A   Mostly Cloudy
3:25 PM 62.6 °F 42.8 °F 48% 29.92 in 6.2 mi SW 13.8 mph - N/A   Scattered Clouds
3:55 PM 62.6 °F 42.8 °F 48% 29.92 in 6.2 mi SW 15.0 mph - N/A   Mostly Cloudy
4:25 PM 60.8 °F 42.8 °F 52% 29.92 in 6.2 mi WSW 15.0 mph - N/A   Mostly Cloudy
4:55 PM 60.8 °F 41.0 °F 48% 29.89 in 6.2 mi SW 12.7 mph - N/A   Mostly Cloudy
5:00 PM 61 °F 42 °F 38% 29.91 in 19 mi SW 13.4 mph - -   Mostly Cloudy
5:25 PM 60.8 °F 41.0 °F 48% 29.89 in 6.2 mi SW 12.7 mph - N/A   Mostly Cloudy
5:55 PM 62.6 °F 42.8 °F 48% 29.89 in 6.2 mi SW 12.7 mph - N/A   Mostly Cloudy
6:25 PM 60.8 °F 42.8 °F 52% 29.89 in 6.2 mi WSW 12.7 mph - N/A   Mostly Cloudy
6:55 PM 60.8 °F 42.8 °F 52% 29.89 in 6.2 mi South 10.4 mph - N/A   Mostly Cloudy
7:25 PM 60.8 °F 41.0 °F 48% 29.89 in 6.2 mi WSW 11.5 mph - N/A   Scattered Clouds
7:55 PM 60.8 °F 42.8 °F 52% 29.86 in 6.2 mi WSW 11.5 mph - N/A   Scattered Clouds
8:00 PM 60 °F 42 °F 41% 29.88 in 19 mi WSW 11.2 mph - -   Partly Cloudy
8:25 PM 59.0 °F 41.0 °F 51% 29.89 in 6.2 mi WSW 10.4 mph - N/A   Scattered Clouds
8:55 PM 57.2 °F 42.8 °F 59% 29.89 in 6.2 mi WSW 9.2 mph - N/A   Mostly Cloudy
9:25 PM 55.4 °F 42.8 °F 63% 29.89 in 6.2 mi WSW 4.6 mph - N/A   Mostly Cloudy
9:55 PM 55.4 °F 41.0 °F 58% 29.89 in 6.2 mi Variable 3.5 mph - N/A   Mostly Cloudy
10:25 PM 53.6 °F 42.8 °F 67% 29.89 in 6.2 mi Variable 2.3 mph - N/A   Scattered Clouds
10:55 PM 51.8 °F 42.8 °F 71% 29.89 in 6.2 mi Variable 3.5 mph - N/A   Scattered Clouds
11:00 PM 52 °F 43 °F 63% 29.91 in 19 mi 4.5 mph - -   Partly Cloudy
11:25 PM 51.8 °F 42.8 °F 71% 29.89 in 6.2 mi Variable 3.5 mph - N/A   Scattered Clouds